www.pogodaiklimat.ru

Погода и климат >> Архив погоды >> Россия >> Иркутская область >> Черемхово


ПОГОДА в Черемхово

  • Прогноз погоды в Черемхово
  • Монитор погоды в Черемхово
  • Климат города

АРХИВ ПОГОДЫ в Черемхово

Время (UTC), дата Ветер
(напр.,м/с)
 
Видим.   Явления Облачность Т
(С)
Тd
(С)
f
(%)
Тe
(С)
Тes
(С)
Комфортность P
(гПа)
Po
(гПа)
Тmin
(С)
Tmax
(С)
R
(мм)
R24
(мм)
S
(см)
03 10.10 Ю 2 50 км 10/0
[Cs]
+0.2 -5.5 65 -3 -0 1035.3 961.4
06 10.10 Ю 2 50 км 10 баллов +3.7 -6.0 49 +2 +2 1032.9 960.0
09 10.10 З 1 50 км 10/0
[Ac trans Cs]
+3.5 -8.0 43 +3 +3 1030.8 958.0
12 10.10 В 1
{6}
н/о 10 баллов +0.9 -8.9 48 -0 -0 1032.3 958.7 +5.2
15 10.10 Ю 1 н/о 10/0
[Cs]
-1.6 -8.7 58 -3 -3 1031.3 957.2
18 10.10 З 1 н/о 10 баллов -3.0 -9.7 60 -5 -5 1031.9 957.3
21 10.10 ЮВ 2 н/о 8/0
[Ci sp]
-6.0 -8.5 82 -10 -10 1031.5 956.2
00 11.10 Ю 1
{3}
10 км 10 баллов -5.1 -8.2 79 -7 -7 1032.5 957.3 -6.3
03 11.10 Ю 1 10 км 10/0
[Cs]
+0.6 -5.7 63 -1 +2 1029.4 956.0
06 11.10 Ю 2 50 км 10 баллов +4.2 -7.9 41 +2 +2 1027.1 954.7
09 11.10 Ю 1 50 км 10/3 1000 м
[Sc Cs]
+4.8 -10.5 32 +4 +5 1025.2 953.1
12 11.10 ЮВ 2
{4}
н/о 10 баллов -0.8 -7.8 59 -4 -4 1027.0 953.3 +5.5
15 11.10 Ю 1 н/о 9/4 1000 м
[Sc Ac trans]
-0.7 -7.7 59 -2 -2 1025.3 951.8
18 11.10 Ю 1 н/о 10 баллов -0.2 -7.7 57 -2 -2 1025.4 952.0
21 11.10 ЮВ 2 н/о 8/3 1000 м
[Sc Ci sp]
-3.0 -8.4 66 -7 -7 1023.8 949.9
00 12.10 Ю 1
{3}
10 км 10 баллов -4.3 -7.6 78 -6 -6 1025.1 950.7 -5.0
03 12.10 ЮЗ 1 50 км 8/0
[Ci fib]
+3.4 -6.4 49 +3 +6 1021.4 949.2
06 12.10 З 2 50 км 10 баллов +5.7 -8.2 36 +4 +4 1019.8 948.4
09 12.10 СЗ 2 50 км 10/0
[As op]
+4.7 -8.9 37 +3 +3 1020.9 949.1
12 12.10 СЗ 5
{10}
н/о слабый ливневой снег 10 баллов +0.7 -1.4 86 -5 -5 1025.1 952.0 +6.0 0.0
15 12.10 СЗ 7
{11}
н/о 9 баллов -0.4 -1.8 90 -8 -8 1028.3 954.7
18 12.10 СЗ 5
{11}
н/о 9 баллов -3.9 -6.7 81 -11 -11 1030.7 956.0
21 12.10 СЗ 3 н/о 10/4 600 м
[Cb cap Ci sp]
-6.1 -9.1 79 -12 -12 1031.1 955.8
00 13.10 З 2
{12}
10 км 9 баллов -4.3 -7.2 80 -8 -8 1032.2 957.3 -6.2 1
03 13.10 СЗ 4 50 км 9/9 600 м
[Cb cap]
-2.0 -5.9 75 -8 -7 1032.2 957.9
06 13.10 СЗ 3 50 км 9 баллов -0.9 -6.1 68 -5 -5 1032.8 958.7
09 13.10 СЗ 4 50 км 6/3 600 м
[Cb cap Ci sp]
-0.2 -7.6 57 -5 -5 1031.1 957.4
12 13.10 Ю 1
{8}
н/о 4 балла -4.4 -9.2 69 -6 -6 1033.8 958.7 +0.9
15 13.10 Ю 2 н/о 3/3 600 м
[Cb cap]
-5.7 -9.3 76 -10 -10 1033.5 958.1
18 13.10 Ю 2 н/о 7 баллов -4.5 -7.4 80 -9 -9 1033.8 958.7
21 13.10 ЮВ 2 н/о 6/4 600 м
[Cb cap Ci sp]
-7.5 -9.6 85 -12 -12 1031.8 956.1
00 14.10 ЮВ 2
{4}
10 км 7 баллов -8.1 -9.2 92 -13 -13 1033.4 957.3 -8.8
03 14.10 Ю 1 50 км 10/3 600 м
[Cb cap Ac trans Ci fib]
-1.7 -6.7 69 -4 -2 1030.5 956.4
06 14.10 ЮЗ 2 50 км 4 балла +2.1 -9.2 43 -0 +2 1029.1 956.0
09 14.10 З 1 50 км 8/6 300 м
[Cb cap Ac trans]
+1.7 -11.8 36 +1 +1 1028.2 955.1
12 14.10 СВ 1
{5}
н/о 6 баллов -0.6 -12.5 40 -2 -2 1031.2 957.3 +2.8
15 14.10 З 1 н/о 3/1 600 м
[Cb cap Ci fib]
-4.2 -11.9 55 -6 -6 1032.2 957.3
18 14.10 СЗ 1 н/о 9 баллов -4.2 -10.6 61 -6 -6 1033.8 958.7
21 14.10 СЗ 1 н/о 3/1 600 м
[Cb cap Ci fib]
-6.8 -9.8 79 -9 -9 1033.7 958.1
00 15.10 ЮЗ 1
{3}
50 км 7 баллов -6.8 -9.3 82 -9 -9 1035.9 960.0 -7.1
03 15.10 В 2 50 км ясно +0.1 -8.1 54 -3 -0 1032.0 958.3
06 15.10 ЮВ 3 50 км ясно +2.1 -10.1 40 -1 +2 1030.5 957.3
09 15.10 В 3 50 км ясно +2.1 -11.0 37 -1 -1 1028.3 955.3
12 15.10 В 3
{7}
н/о 4 балла -2.8 -9.5 60 -8 -8 1030.4 956.0 +2.6
15 15.10 В 4 н/о 4/3 1000 м
[Sc Ci sp]
-5.1 -8.4 78 -11 -11 1028.9 954.1
18 15.10 ЮВ 4 н/о 2 балла -6.7 -9.9 78 -13 -13 1028.6 953.3
21 15.10 ЮВ 4 н/о 3/0
[Ci sp]
-6.4 -10.0 76 -13 -13 1026.6 951.5
00 16.10 ЮВ 4
{6}
20 км 2 балла -4.6 -9.4 69 -11 -11 1026.6 952.0 -7.3
03 16.10 ЮВ 6 50 км 5/0
[Cs]
+1.5 -5.8 58 -4 -3 1023.8 951.0
06 16.10 ЮВ 4
{10}
50 км 2 балла +7.0 -5.0 42 +4 +6 1022.0 950.7
09 16.10 ЮВ 5 50 км 3/0
[Ci sp]
+7.5 -4.0 44 +4 +5 1020.3 949.3
12 16.10 ЮВ 4
{10}
н/о 2 балла +3.8 -4.6 54 -0 -0 1021.4 949.3 +7.9
15 16.10 ЮВ 6 н/о ясно +0.3 -3.3 77 -6 -6 1021.3 948.5
18 16.10 ЮВ 5
{10}
н/о ясно -0.7 -3.9 79 -7 -7 1021.2 948.0
21 16.10 ЮВ 4 н/о 10/0
[Ac As]
-0.2 -3.3 80 -6 -6 1019.5 946.6
00 17.10 Ю 1
{10}
20 км 10 баллов -2.1 -4.4 84 -4 -4 1023.0 949.3 -2.2

 

Местоположение метеостанции Черемхово (Иркутская область, Россия): широта 53.18 долгота 103.00 высота над уровнем моря 598 м.

В архиве по умолчанию представлена погода в Черемхово за последнюю неделю. Архивные данные за месяц целиком и за предыдущие месяцы, начиная с января 2011 года, Вы можете получить, выбрав интересующий диапазон дат из раскрывающегося списка и нажав кнопку "Ввод!".

Внимание! Время в таблицах - всемирное. Для получения местного времени необходимо прибавить поправку, которая в Черемхово равна 8 ч.

Смотрите также архив погоды в соседних городах и на ближайших метеорологических станциях:

Погода в Заларях (Иркутская область, Россия) (53 км)
Погода в Инге (Иркутская область, Россия) (77 км)
Погода в Балаганске (Иркутская область, Россия) (91 км)
Погода в Ангарск (Иркутская область, Россия) (95 км)
Погода в Зиме (Иркутская область, Россия) (106 км)
Погода в Хомутово (Иркутская область, Россия) (119 км)
Погода в Усть-Ордынском (Иркутская область, Россия) (121 км)
Погода в Дабадах (Иркутская область, Россия) (122 км)
Погода в Иркутске (Иркутская область, Россия) (134 км)
Погода в Иркутск аэропорт (Иркутская область, Россия) (134 км)

Пояснения к столбцам:

Ветер - указаны скорость ветра в м/с - средняя за 10 мин, порывы в срок и между сроками (в фигурных скобках) и направление, откуда дует ветер: С - северный, СВ - северо-восточный, В - восточный, ЮВ - юго-восточный, Ю - южный, ЮЗ - юго-западный, З - западный, СЗ - северо-западный.
Видимость - горизонтальная дальность видимости в метрах или километрах. При видимости от 1 до 10 км при отсутствии осадков обычно наблюдается дымка, при ухудшении видимости до 1 км и менее - туман. В сухую погоду видимость может ухудшаться дымом, пылью или мглою.
Явления - указаны атмосферные явления, наблюдавшиеся в срок или в последний час перед сроком; фигурными скобками обозначены явления, наблюдавшиеся между сроками (за 1-3 часа до срока); квадратными скобками обозначены град или гололедные отложения с указанием их диаметра в мм.
Облачность - указаны через наклонную черту общая и нижняя облачность в баллах и высота нижней границы облаков в метрах; квадратными скобками обозначены формы облаков: Ci - перистые, Cs - перисто-слоистые, Cc - перисто-кучевые, Ac - высококучевые, As - высокослоистые, Sc - слоисто-кучевые, Ns - слоисто-дождевые, Cu - кучевые, Cb - кучево-дождевые. Подробнее классификацию облаков см. в Атласе облаков (PDF).
T - Температура воздуха - температура, измеренная на высоте 2 м над землей.
Td - Температура точки росы - температура, при понижении до которой содержащийся в воздухе водяной пар достигнет насыщения.
f - Относительная влажность воздуха - влажноcть воздуха, измеренная на высоте 2 м над землей.
Te - Эффективная температура - температура, которую ощущает одетый по сезону человек в тени. Характеристика душности погоды. При расчете учитывается влияние влажности воздуха и скорости ветра на теплоощущения человека.
Tes - Эффективная температура на солнце - температура, которую ощущает человек, с поправкой на солнечный нагрев. Характеристика знойности погоды. Зависит от высоты солнца над горизонтом, облачности и скорости ветра. Ночью, в пасмурную погоду, а также при ветре 12 м/с и более поправка равна нулю.
P - Атмосферное давление - приведенное к уровню моря атмосферное давление.
Po - Атмосферное давление - измеренное на уровне метеостанции атмосферное давление.
Tmin - Минимальная температура - минимум температуры воздуха на высоте 2 м над землей.
Tmax - Максимальная температура - максимум температуры воздуха на высоте 2 м над землей.
R - Количество осадков - Количество выпавших осадков за период времени, мм. При наведении курсора мыши на число - период времени, за который выпало указанное количество осадков.
R24 - Количество осадков - Количество выпавших осадков за 24 часа, мм.
S - Снежный покров - Высота снежного покрова, см. При наведении курсора мыши на число - состояние снежного покрова и степень покрытия местности в баллах.